• In Czech Republic
  • List of Countries
  • For 7 days
  • Water Temperature
  • Satellite Maps
  • Weather Map
  • Weather Widgets
  • user-avatar
    Login

    Hourly Weather Garissa

    Today, 25 February, Sunday

    Time Temperature Precipitation Wind Pressure Humidity
    00:00 +32°C° 0 mm 7 mps 742 mmHg 56%
    01:00 +30°C° 0 mm 6 mps 743 mmHg 60%
    02:00 +29°C° 0 mm 6 mps 743 mmHg 63%
    03:00 +29°C° 0 mm 5 mps 743 mmHg 67%
    04:00 +28°C° 0 mm 4 mps 743 mmHg 71%
    05:00 +28°C° 0 mm 4 mps 744 mmHg 74%
    06:00 +27°C° 0 mm 3 mps 744 mmHg 77%
    07:00 +28°C° 0 mm 3 mps 744 mmHg 73%
    08:00 +29°C° 0 mm 3 mps 745 mmHg 69%
    09:00 +30°C° 0 mm 3 mps 745 mmHg 66%
    10:00 +31°C° 0 mm 3 mps 745 mmHg 58%
    11:00 +34°C° 0 mm 3 mps 744 mmHg 50%
    12:00 +36°C° 0 mm 3 mps 744 mmHg 43%
    13:00 +37°C° 0 mm 3 mps 743 mmHg 39%
    14:00 +38°C° 0 mm 3 mps 742 mmHg 35%
    15:00 +39°C° 0 mm 3 mps 741 mmHg 32%
    16:00 +39°C° 0 mm 3 mps 741 mmHg 31%
    17:00 +40°C° 0 mm 3 mps 741 mmHg 30%
    18:00 +40°C° 0 mm 3 mps 741 mmHg 29%
    19:00 +40°C° 0 mm 4 mps 741 mmHg 31%
    20:00 +37°C° 0 mm 4 mps 742 mmHg 34%
    21:00 +36°C° 0 mm 5 mps 742 mmHg 37%
    22:00 +35°C° 0 mm 5 mps 742 mmHg 44%
    23:00 +33°C° 0 mm 6 mps 742 mmHg 50%

    Tomorrow, 26 February, Monday

    Time Temperature Precipitation Wind Pressure Humidity
    00:00 +30°C° 0 mm 6 mps 743 mmHg 57%
    01:00 +30°C° 0 mm 5 mps 743 mmHg 59%
    02:00 +29°C° 0 mm 5 mps 743 mmHg 61%
    03:00 +29°C° 0 mm 4 mps 743 mmHg 64%
    04:00 +28°C° 0 mm 3 mps 743 mmHg 66%
    05:00 +28°C° 0 mm 3 mps 743 mmHg 68%
    06:00 +28°C° 0 mm 3 mps 743 mmHg 71%
    07:00 +29°C° 0 mm 3 mps 744 mmHg 66%
    08:00 +29°C° 0 mm 3 mps 744 mmHg 62%
    09:00 +30°C° 0 mm 3 mps 745 mmHg 58%
    10:00 +32°C° 0 mm 2 mps 744 mmHg 51%
    11:00 +35°C° 0 mm 2 mps 744 mmHg 43%
    12:00 +37°C° 0 mm 2 mps 743 mmHg 36%
    13:00 +38°C° 0 mm 2 mps 742 mmHg 33%
    14:00 +39°C° 0 mm 2 mps 741 mmHg 30%
    15:00 +40°C° 0 mm 2 mps 740 mmHg 27%
    16:00 +40°C° 0 mm 3 mps 740 mmHg 26%
    17:00 +40°C° 0 mm 3 mps 740 mmHg 25%
    18:00 +41°C° 0 mm 4 mps 740 mmHg 24%
    19:00 +40°C° 0 mm 4 mps 740 mmHg 27%
    20:00 +38°C° 0 mm 4 mps 741 mmHg 30%
    21:00 +37°C° 0 mm 5 mps 742 mmHg 33%
    22:00 +35°C° 0 mm 5 mps 742 mmHg 40%
    23:00 +33°C° 0 mm 6 mps 742 mmHg 48%

    Day after tomorrow, 27 February, Tuesday

    Time Temperature Precipitation Wind Pressure Humidity
    00:00 +32°C° 0 mm 6 mps 743 mmHg 56%
    01:00 +30°C° 0 mm 6 mps 742 mmHg 59%
    02:00 +29°C° 0 mm 5 mps 742 mmHg 63%
    03:00 +29°C° 0 mm 5 mps 742 mmHg 66%
    04:00 +28°C° 0 mm 5 mps 742 mmHg 69%
    05:00 +28°C° 0 mm 5 mps 743 mmHg 72%
    06:00 +28°C° 0 mm 4 mps 743 mmHg 75%
    07:00 +28°C° 0 mm 4 mps 744 mmHg 73%
    08:00 +28°C° 0 mm 4 mps 744 mmHg 72%
    09:00 +29°C° 0 mm 4 mps 745 mmHg 70%
    10:00 +29°C° 0 mm 4 mps 744 mmHg 67%
    11:00 +30°C° 0 mm 4 mps 744 mmHg 64%
    12:00 +31°C° 0 mm 3 mps 744 mmHg 61%
    13:00 +33°C° 0 mm 3 mps 743 mmHg 54%
    14:00 +35°C° 0 mm 3 mps 742 mmHg 48%
    15:00 +37°C° 0 mm 3 mps 740 mmHg 41%
    16:00 +37°C° 0 mm 3 mps 740 mmHg 40%
    17:00 +37°C° 0 mm 3 mps 740 mmHg 39%
    18:00 +37°C° 0 mm 3 mps 740 mmHg 38%
    19:00 +37°C° 0 mm 3 mps 741 mmHg 40%
    20:00 +36°C° 0 mm 2 mps 742 mmHg 42%
    21:00 +35°C° 0 mm 2 mps 742 mmHg 43%
    22:00 +34°C° 0 mm 3 mps 742 mmHg 48%
    23:00 +33°C° 0 mm 4 mps 743 mmHg 53%

    28 February, Wednesday

    Time Temperature Precipitation Wind Pressure Humidity
    00:00 +32°C° 0 mm 6 mps 743 mmHg 58%
    01:00 +30°C° 0 mm 5 mps 742 mmHg 62%
    02:00 +29°C° 0 mm 5 mps 742 mmHg 66%
    03:00 +29°C° 0 mm 4 mps 742 mmHg 70%
    04:00 +28°C° 0 mm 4 mps 742 mmHg 72%
    05:00 +28°C° 0 mm 4 mps 743 mmHg 75%
    06:00 +28°C° 0 mm 3 mps 743 mmHg 77%
    07:00 +28°C° 0 mm 3 mps 744 mmHg 73%
    08:00 +29°C° 0 mm 3 mps 744 mmHg 70%
    09:00 +30°C° 0 mm 3 mps 745 mmHg 66%
    10:00 +31°C° 0 mm 3 mps 744 mmHg 59%
    11:00 +34°C° 0 mm 3 mps 744 mmHg 52%
    12:00 +36°C° 0 mm 3 mps 743 mmHg 45%
    13:00 +37°C° 0 mm 3 mps 742 mmHg 41%
    14:00 +38°C° 0 mm 3 mps 741 mmHg 37%
    15:00 +39°C° 0 mm 3 mps 740 mmHg 33%
    16:00 +39°C° 0 mm 3 mps 740 mmHg 32%
    17:00 +39°C° 0 mm 3 mps 739 mmHg 30%
    18:00 +39°C° 0 mm 3 mps 739 mmHg 29%
    19:00 +38°C° 0 mm 3 mps 740 mmHg 31%
    20:00 +38°C° 0 mm 4 mps 741 mmHg 33%
    21:00 +37°C° 0 mm 4 mps 741 mmHg 35%
    22:00 +36°C° 0 mm 4 mps 741 mmHg 40%
    23:00 +35°C° 0 mm 5 mps 741 mmHg 45%

    1 March, Thursday

    Time Temperature Precipitation Wind Pressure Humidity
    00:00 +34°C° 0 mm 6 mps 742 mmHg 51%
    01:00 +33°C° 0 mm 5 mps 741 mmHg 56%
    02:00 +32°C° 0 mm 5 mps 741 mmHg 61%
    03:00 +30°C° 0 mm 4 mps 741 mmHg 66%
    04:00 +29°C° 0 mm 4 mps 741 mmHg 68%
    05:00 +29°C° 0 mm 4 mps 742 mmHg 70%
    06:00 +28°C° 0 mm 3 mps 742 mmHg 73%
    07:00 +29°C° 0 mm 3 mps 743 mmHg 70%
    08:00 +30°C° 0 mm 3 mps 743 mmHg 68%
    09:00 +30°C° 0 mm 4 mps 744 mmHg 66%
    10:00 +33°C° 0 mm 3 mps 743 mmHg 61%
    11:00 +34°C° 0 mm 3 mps 743 mmHg 56%
    12:00 +35°C° 0 mm 3 mps 742 mmHg 50%
    13:00 +36°C° 0 mm 2 mps 741 mmHg 46%
    14:00 +37°C° 0 mm 2 mps 740 mmHg 41%
    15:00 +39°C° 0 mm 2 mps 739 mmHg 37%
    16:00 +39°C° 0 mm 2 mps 739 mmHg 35%
    17:00 +39°C° 0 mm 3 mps 739 mmHg 34%
    18:00 +39°C° 0 mm 3 mps 739 mmHg 33%
    19:00 +38°C° 0 mm 3 mps 740 mmHg 35%
    20:00 +38°C° 0 mm 3 mps 740 mmHg 36%
    21:00 +37°C° 0 mm 3 mps 740 mmHg 38%
    22:00 +35°C° 0 mm 5 mps 741 mmHg 45%
    23:00 +34°C° 0 mm 6 mps 741 mmHg 53%

    2 March, Friday

    Time Temperature Precipitation Wind Pressure Humidity
    00:00 +32°C° 0 mm 7 mps 741 mmHg 60%
    01:00 +32°C° 0.3 mm 6 mps 741 mmHg 63%
    02:00 +30°C° 0.3 mm 5 mps 741 mmHg 67%
    03:00 +29°C° 0.3 mm 4 mps 741 mmHg 70%
    04:00 +29°C° 0.2 mm 4 mps 741 mmHg 71%
    05:00 +29°C° 0.2 mm 4 mps 742 mmHg 72%
    06:00 +29°C° 0.2 mm 4 mps 742 mmHg 73%
    07:00 +29°C° 0 mm 4 mps 743 mmHg 72%
    08:00 +30°C° 0 mm 4 mps 743 mmHg 70%
    09:00 +30°C° 0 mm 5 mps 743 mmHg 68%
    10:00 +32°C° 0 mm 5 mps 743 mmHg 63%
    11:00 +33°C° 0 mm 5 mps 742 mmHg 58%
    12:00 +34°C° 0 mm 5 mps 742 mmHg 53%
    13:00 +35°C° 0 mm 5 mps 741 mmHg 49%
    14:00 +36°C° 0 mm 5 mps 740 mmHg 46%
    15:00 +37°C° 0 mm 5 mps 740 mmHg 43%
    16:00 +37°C° 0 mm 5 mps 740 mmHg 43%
    17:00 +37°C° 0 mm 5 mps 740 mmHg 42%
    18:00 +36°C° 0 mm 5 mps 740 mmHg 42%
    19:00 +36°C° 0 mm 5 mps 740 mmHg 45%
    20:00 +35°C° 0 mm 5 mps 741 mmHg 48%
    21:00 +34°C° 0 mm 5 mps 741 mmHg 50%
    22:00 +33°C° 0 mm 5 mps 741 mmHg 55%
    23:00 +32°C° 0 mm 6 mps 741 mmHg 60%
    Show more